[[{"header":{"parameterUnit":"m.s-1","parameterCategory":1,"la1":30.2991,"la2":30.254,"lo1":-89.0895,"lo2":-89.0444,"dy":0.0017,"dx":0.0017,"nx":28,"ny":28,"refTime":"2024-10-21T03:00:00:Z","depth":0,"parameterNumber":2,"parameterNumberName":"U-component_of_WINDS"},"data":[0,0,0,0,0,0,0,0,0,0,0,0,0,0,0,0,0,0,0,0,0,0,0,0,0,0,0,0,0,0,0,0,0,0,0,0,0,0,0,0,0,0,0,0,0,0,0,0,0,0,0,0,0,0,0,0,0,0,-2.1443,-2.1443,0,-2.1523,-2.1524,-2.1525,-2.1474,-2.1471,-2.1469,-2.1467,-2.155,-2.1554,-2.1558,0,0,0,0,0,0,0,0,0,0,0,0,0,-2.1246,-2.125,-2.1443,-2.1444,-2.1445,-2.1523,-2.1524,-2.1525,-2.1474,-2.1471,-2.1468,-2.1465,-2.1548,-2.1553,-2.1559,0,0,0,0,0,0,0,0,0,0,0,0,0,-2.1329,-2.1251,-2.1442,-2.1429,-2.1428,-2.1522,-2.1524,-2.1525,-2.1475,-2.1471,-2.1467,-2.1464,-2.1546,-2.1553,-2.1559,-2.1672,0,0,-2.158,-2.1583,0,0,0,0,0,0,0,0,-2.1324,-2.1336,-2.143,-2.143,-2.1429,-2.1484,-2.1485,-2.1574,-2.1476,-2.1457,-2.1467,-2.1462,-2.1531,-2.1539,-2.1562,-2.1676,-2.168,-2.158,-2.1584,-2.1587,-2.1589,0,0,0,0,0,0,0,-2.1319,-2.1333,-2.1474,-2.1431,-2.1431,-2.1418,-2.1426,-2.1501,-2.1513,-2.1458,-2.1455,-2.1465,-2.153,-2.1555,-2.1563,-2.1681,-2.158,-2.1586,-2.159,-2.1593,-2.1892,-2.1895,0,0,0,0,0,0,-2.1314,-2.1328,-2.1472,-2.1477,-2.1367,-2.1425,-2.1434,-2.147,-2.1512,-2.1515,-2.1468,-2.1462,-2.1546,-2.1555,-2.1566,-2.1701,-2.1587,-2.1593,-2.1597,-2.1888,-2.1893,-2.1897,0,0,0,0,0,0,-2.131,-2.1327,-2.1468,-2.1402,-2.1419,-2.1432,-2.1474,-2.1474,-2.1499,-2.1519,-2.1521,-2.1492,-2.1543,-2.1556,-2.1646,-2.1703,-2.1596,-2.1603,-2.1883,-2.1889,-2.1895,-2.1972,0,0,0,0,0,0,-2.1305,-2.1326,-2.1369,-2.1403,-2.1422,-2.1548,-2.1477,-2.1478,-2.151,-2.1504,-2.1542,-2.1545,-2.1541,-2.1636,-2.1653,-2.171,-2.1608,-2.1878,-2.1886,-2.1893,-2.1965,-2.198,-2.1993,0,0,0,0,0,-2.1298,-2.1388,-2.1372,-2.1389,-2.1476,-2.1551,-2.1562,-2.1556,-2.1515,-2.1559,-2.1572,-2.1544,-2.1694,-2.1646,-2.1664,-2.1725,-2.1874,-2.1884,-2.1892,-2.1958,-2.1977,-2.1993,0,0,0,0,0,0,-2.1361,-2.1392,-2.1374,-2.1478,-2.1512,-2.1542,-2.1597,-2.1576,-2.1623,-2.1615,-2.1605,-2.1615,-2.1708,-2.1725,-2.1671,-2.1836,-2.1778,-2.1791,-2.1822,-2.184,-2.1854,-2.1849,-2.1613,0,0,0,0,0,-2.1387,-2.1445,-2.1469,-2.1558,-2.1576,-2.1584,-2.1616,-2.1608,-2.1643,-2.1658,-2.1677,-2.1713,-2.1767,-2.1804,-2.1856,-2.1966,-2.1974,-2.2016,-2.2031,-2.2042,-2.2054,-2.2114,-2.2133,-2.1926,-2.1926,-2.1926,0,0,-2.1441,-2.1465,-2.1503,-2.1571,-2.1597,-2.1657,-2.1596,-2.1663,-2.1708,-2.1668,-2.1754,-2.1769,-2.1808,-2.1908,-2.1953,-2.1925,-2.2113,-2.2054,-2.2063,-2.2068,-2.2125,-2.2145,-2.2162,-2.1932,-2.1931,-2.193,0,0,-2.1572,-2.1595,-2.1673,-2.1699,-2.1739,-2.1743,-2.1761,-2.1795,-2.1803,-2.1889,-2.1861,-2.1913,-2.2009,-2.2038,-2.2065,-2.2205,-2.2181,-2.2222,-2.2298,-2.2356,-2.2372,-2.2387,-2.2438,-2.2456,-2.2233,-2.2234,-2.2234,0,-2.1635,-2.1725,-2.1715,-2.1784,-2.1815,-2.1781,-2.1859,-2.1886,-2.194,-2.1963,-2.193,-2.2048,-2.2072,-2.2179,-2.2213,-2.2236,-2.2257,-2.2219,-2.2371,-2.2385,-2.2398,-2.2447,-2.2466,-2.2238,-2.2238,-2.2237,-2.2237,0,-2.1801,-2.1863,-2.1921,-2.1974,-2.2012,-2.2085,-2.2086,-2.2125,-2.2114,-2.2122,-2.221,-2.2237,-2.2293,-2.2318,-2.2307,-2.2424,-2.2405,-2.2371,-2.2313,-2.2423,-2.2469,-2.2487,-2.2245,-2.2243,-2.2242,-2.2241,0,0,-2.1975,-2.2021,-2.2043,-2.2067,-2.2107,-2.2155,-2.2227,-2.2282,-2.2316,-2.2354,-2.2414,-2.2495,-2.2464,-2.2495,-2.2487,-2.2538,-2.2649,-2.2499,-2.25,-2.2527,-2.2779,-2.2805,-2.2827,-2.2633,-2.2636,-2.2639,-2.2777,0,-2.2109,-2.2234,-2.2227,-2.2344,-2.2402,-2.237,-2.2432,-2.2464,-2.2473,-2.2523,-2.2533,-2.2591,-2.2545,-2.2564,-2.2613,-2.2625,-2.27,-2.2615,-2.2689,-2.2692,-2.2683,-2.2851,-2.2879,-2.3008,-2.2794,-2.2797,-2.2799,0,-2.2282,-2.2326,-2.245,-2.2481,-2.2505,-2.2561,-2.2611,-2.266,-2.2695,-2.2697,-2.2732,-2.2715,-2.2788,-2.2726,-2.2826,-2.2769,-2.2798,-2.2809,-2.2814,-2.2822,-2.2754,-2.2865,-2.3048,-2.3068,-2.2827,-2.2825,-2.2823,0,-2.2399,-2.2489,-2.2574,-2.2595,-2.2634,-2.2674,-2.2692,-2.2723,-2.2757,-2.28,-2.2822,-2.2873,-2.2902,-2.2942,-2.294,-2.2895,-2.3042,-2.298,-2.3047,-2.3047,-2.3081,-2.3079,-2.3273,-2.3097,-2.3097,-2.3097,-2.3096,0,-2.255,-2.2627,-2.2627,-2.268,-2.2765,-2.2756,-2.2841,-2.2854,-2.2882,-2.2937,-2.2911,-2.2964,-2.2957,-2.3009,-2.3008,-2.3092,-2.3104,-2.3109,-2.3108,-2.3112,-2.3112,-2.3133,-2.3125,-2.3102,-2.3101,-2.31,-2.3099,0,-2.2696,-2.2699,-2.279,-2.2819,-2.2827,-2.2889,-2.2914,-2.2964,-2.297,-2.3039,-2.3055,-2.3065,-2.3125,-2.3127,-2.3196,-2.3195,-2.3297,-2.3285,-2.3286,-2.3284,-2.3351,-2.3345,-2.3567,-2.3596,-2.34,-2.3402,-2.3403,0,-2.2793,-2.2852,-2.2886,-2.2921,-2.2942,-2.2998,-2.3032,-2.3025,-2.3061,-2.3105,-2.315,-2.3207,-2.3254,-2.3351,-2.3365,-2.3417,-2.3408,-2.3481,-2.3415,-2.3418,-2.341,-2.3408,-2.3414,-2.3495,-2.3497,-2.3499,-2.35,0,-2.2966,-2.2964,-2.3014,-2.3065,-2.3106,-2.3146,-2.3182,-2.3212,-2.3209,-2.3251,-2.3312,-2.3348,-2.3418,-2.3476,-2.3527,-2.3545,-2.3523,-2.3521,-2.3539,-2.3545,-2.3544,-2.3547,-2.3323,-2.3516,-2.3515,-2.3513,-2.3513,-2.3512,-2.3091,-2.3142,-2.3174,-2.3231,-2.3257,-2.3292,-2.3341,-2.3352,-2.3403,-2.346,-2.3452,-2.352,-2.3553,-2.3619,-2.3642,-2.3695,-2.3669,-2.3696,-2.3703,-2.371,-2.3718,-2.3533,-2.3704,-2.3703,-2.3703,-2.3703,-2.3702,0,-2.3264,-2.3283,-2.3335,-2.3387,-2.3431,-2.3405,-2.3444,-2.3483,-2.3543,-2.3576,-2.3621,-2.3692,-2.3747,-2.3764,-2.3818,-2.3858,-2.3849,-2.3873,-2.3871,-2.3875,-2.3737,-2.3716,-2.3879,-2.3879,-2.3879,-2.3879,-2.3879,-2.3879,-2.3359,-2.3444,-2.3446,-2.3543,-2.3561,-2.3628,-2.3653,-2.3684,-2.371,-2.379,-2.3836,-2.3846,-2.3873,-2.3928,-2.3978,-2.3982,-2.4004,-2.4032,-2.4031,-2.3903,-2.3885,-2.3868,-2.3849,-2.4036,-2.4036,-2.4165,-2.4166,-2.4167]},{"header":{"parameterUnit":"m.s-1","parameterCategory":1,"la1":30.2991,"la2":30.254,"lo1":-89.0895,"lo2":-89.0444,"dy":0.0017,"dx":0.0017,"nx":28,"ny":28,"refTime":"2024-10-21T03:00:00:Z","depth":0,"parameterNumber":3,"parameterNumberName":"V-component_of_WINDS"},"data":[0,0,0,0,0,0,0,0,0,0,0,0,0,0,0,0,0,0,0,0,0,0,0,0,0,0,0,0,0,0,0,0,0,0,0,0,0,0,0,0,0,0,0,0,0,0,0,0,0,0,0,0,0,0,0,0,0,0,-4.4529,-4.453,0,-4.4573,-4.4574,-4.4574,-4.4496,-4.4493,-4.4491,-4.4488,-4.4529,-4.4533,-4.4536,0,0,0,0,0,0,0,0,0,0,0,0,0,-4.4373,-4.4377,-4.4529,-4.453,-4.453,-4.4573,-4.4574,-4.4574,-4.4496,-4.4493,-4.449,-4.4487,-4.4528,-4.4532,-4.4537,0,0,0,0,0,0,0,0,0,0,0,0,0,-4.4431,-4.4378,-4.4529,-4.4497,-4.4494,-4.4573,-4.4574,-4.4574,-4.4497,-4.4493,-4.4489,-4.4486,-4.4527,-4.4532,-4.4537,-4.4648,0,0,-4.4553,-4.4556,0,0,0,0,0,0,0,0,-4.4428,-4.4437,-4.4501,-4.4499,-4.4496,-4.4525,-4.4534,-4.4599,-4.4498,-4.4496,-4.4488,-4.4484,-4.4531,-4.4536,-4.4552,-4.465,-4.4652,-4.4554,-4.4557,-4.4559,-4.4561,0,0,0,0,0,0,0,-4.4424,-4.4435,-4.4546,-4.4502,-4.4499,-4.4478,-4.4482,-4.4546,-4.4535,-4.4496,-4.449,-4.4497,-4.4529,-4.4547,-4.4553,-4.4652,-4.4554,-4.4558,-4.4562,-4.4564,-4.4842,-4.4846,0,0,0,0,0,0,-4.4425,-4.4432,-4.4545,-4.4548,-4.4452,-4.4484,-4.4489,-4.452,-4.4534,-4.4532,-4.45,-4.4493,-4.454,-4.4547,-4.4554,-4.4684,-4.4559,-4.4564,-4.4567,-4.4838,-4.4843,-4.4848,0,0,0,0,0,0,-4.4422,-4.4436,-4.4543,-4.4488,-4.4501,-4.4491,-4.4527,-4.4523,-4.4541,-4.4537,-4.4534,-4.4521,-4.4537,-4.4546,-4.4625,-4.4684,-4.4567,-4.4571,-4.4833,-4.4839,-4.4845,-4.4946,0,0,0,0,0,0,-4.4418,-4.4435,-4.4478,-4.449,-4.4504,-4.4616,-4.453,-4.4526,-4.4551,-4.4542,-4.4556,-4.4555,-4.4535,-4.4618,-4.4631,-4.469,-4.4575,-4.4828,-4.4836,-4.4843,-4.4938,-4.4955,-4.497,0,0,0,0,0,-4.4412,-4.4504,-4.4481,-4.4495,-4.4558,-4.4619,-4.4627,-4.4604,-4.4556,-4.4599,-4.4596,-4.4554,-4.4676,-4.4627,-4.464,-4.4702,-4.4824,-4.4833,-4.4843,-4.493,-4.4952,-4.497,0,0,0,0,0,0,-4.4499,-4.4505,-4.4479,-4.4578,-4.4599,-4.4606,-4.4659,-4.4627,-4.4661,-4.4651,-4.4619,-4.4623,-4.4708,-4.4712,-4.4657,-4.4809,-4.4742,-4.4754,-4.4803,-4.4824,-4.484,-4.4837,-4.458,0,0,0,0,0,-4.4529,-4.458,-4.4582,-4.4669,-4.4681,-4.4669,-4.4694,-4.4675,-4.4694,-4.4702,-4.4705,-4.4725,-4.4767,-4.4795,-4.4834,-4.4938,-4.4939,-4.4986,-4.5003,-4.5016,-4.5028,-4.5082,-4.5103,-4.4879,-4.4879,-4.4879,0,0,-4.4593,-4.4603,-4.4637,-4.4687,-4.4701,-4.4752,-4.4676,-4.4735,-4.4772,-4.471,-4.4786,-4.4788,-4.4808,-4.4899,-4.494,-4.4906,-4.509,-4.5028,-4.5039,-4.5043,-4.5094,-4.5115,-4.5134,-4.4885,-4.4884,-4.4883,0,0,-4.4735,-4.4748,-4.4822,-4.4837,-4.486,-4.485,-4.4868,-4.488,-4.488,-4.4955,-4.491,-4.4953,-4.5027,-4.5043,-4.506,-4.5208,-4.5171,-4.5221,-4.5307,-4.536,-4.5378,-4.5393,-4.5446,-4.5465,-4.5233,-4.5233,-4.5233,0,-4.4811,-4.4889,-4.4863,-4.4925,-4.4948,-4.4895,-4.4969,-4.4984,-4.5018,-4.5034,-4.4996,-4.5087,-4.5096,-4.5191,-4.5227,-4.5243,-4.5261,-4.522,-4.5378,-4.5393,-4.5407,-4.5456,-4.5476,-4.5239,-4.5238,-4.5238,-4.5237,0,-4.4981,-4.5035,-4.5092,-4.5127,-4.5156,-4.5223,-4.5206,-4.5238,-4.5216,-4.521,-4.5287,-4.5296,-4.5336,-4.5356,-4.5334,-4.5447,-4.5425,-4.5383,-4.5314,-4.5435,-4.5481,-4.5499,-4.5248,-4.5245,-4.5244,-4.5242,0,0,-4.5179,-4.5199,-4.522,-4.5235,-4.5255,-4.5296,-4.536,-4.54,-4.5428,-4.5452,-4.5504,-4.5568,-4.5529,-4.5549,-4.5528,-4.5575,-4.5691,-4.5526,-4.5526,-4.5556,-4.5815,-4.5847,-4.5869,-4.5666,-4.5669,-4.5672,-4.5813,0,-4.5321,-4.5433,-4.5411,-4.552,-4.5569,-4.552,-4.5575,-4.5593,-4.5589,-4.5629,-4.5624,-4.567,-4.5615,-4.5627,-4.5671,-4.5667,-4.5742,-4.5657,-4.5713,-4.5715,-4.571,-4.5893,-4.5927,-4.606,-4.5831,-4.5834,-4.5836,0,-4.5501,-4.5533,-4.5648,-4.566,-4.5679,-4.573,-4.5764,-4.5804,-4.5822,-4.5816,-4.5839,-4.5809,-4.587,-4.5801,-4.5886,-4.5828,-4.585,-4.5851,-4.5856,-4.586,-4.5783,-4.5902,-4.6101,-4.6121,-4.5864,-4.5862,-4.586,0,-4.5634,-4.5706,-4.5783,-4.5798,-4.5814,-4.585,-4.5858,-4.5873,-4.5898,-4.5927,-4.5943,-4.5979,-4.5999,-4.6027,-4.6007,-4.5958,-4.6094,-4.6023,-4.609,-4.609,-4.6121,-4.6119,-4.6326,-4.6135,-4.6135,-4.6134,-4.6134,0,-4.5794,-4.5866,-4.5843,-4.5891,-4.597,-4.5943,-4.6021,-4.6023,-4.6036,-4.6082,-4.6041,-4.6084,-4.6055,-4.6096,-4.6081,-4.6153,-4.6162,-4.6158,-4.6153,-4.6162,-4.6162,-4.6175,-4.6166,-4.614,-4.6138,-4.6137,-4.6136,0,-4.5956,-4.5944,-4.6025,-4.6034,-4.6038,-4.6095,-4.6101,-4.6145,-4.6138,-4.6197,-4.6209,-4.6198,-4.6244,-4.6227,-4.6275,-4.6265,-4.6357,-4.634,-4.6351,-4.6347,-4.6414,-4.6408,-4.6637,-4.6665,-4.6456,-4.6458,-4.646,0,-4.6059,-4.6114,-4.6128,-4.6157,-4.6168,-4.6215,-4.624,-4.6216,-4.6244,-4.6268,-4.6309,-4.6352,-4.6384,-4.646,-4.6455,-4.6492,-4.6475,-4.6553,-4.6481,-4.6488,-4.6476,-4.6473,-4.6478,-4.6568,-4.657,-4.6572,-4.6574,0,-4.6244,-4.6235,-4.6274,-4.6312,-4.6344,-4.6372,-4.6396,-4.6421,-4.6398,-4.6431,-4.6479,-4.6504,-4.6554,-4.6597,-4.6629,-4.6636,-4.6601,-4.6596,-4.6614,-4.6623,-4.6628,-4.6626,-4.6391,-4.6591,-4.6589,-4.6588,-4.6587,-4.6587,-4.6379,-4.6425,-4.6442,-4.6487,-4.6503,-4.6526,-4.6568,-4.6566,-4.6606,-4.6646,-4.6628,-4.6683,-4.6698,-4.6739,-4.675,-4.6791,-4.6761,-4.6786,-4.6792,-4.6799,-4.6808,-4.6621,-4.6797,-4.6796,-4.6796,-4.6795,-4.6795,0,-4.6561,-4.657,-4.6612,-4.6647,-4.6682,-4.6647,-4.6672,-4.6703,-4.6752,-4.677,-4.6804,-4.6857,-4.6898,-4.6897,-4.6934,-4.6967,-4.6952,-4.6978,-4.6975,-4.6977,-4.6833,-4.6814,-4.699,-4.699,-4.699,-4.699,-4.699,-4.6989,-4.666,-4.6735,-4.6729,-4.6811,-4.6818,-4.6873,-4.6889,-4.691,-4.6925,-4.6987,-4.7021,-4.702,-4.703,-4.7068,-4.7103,-4.7102,-4.7117,-4.7149,-4.7142,-4.7007,-4.6987,-4.6969,-4.6951,-4.7153,-4.7153,-4.7283,-4.7284,-4.7285]}]]